Date,Elev,Cap,MRF,Tur,Div,COL 2 gpm,COL 134 gpm
13-Jul-21 00:00:00,2649.95,43612,43.1,44.6,20.50,0,9194
13-Jul-21 01:00:00,2649.96,43622,45.3,44.7,20.50,0,9178
13-Jul-21 02:00:00,2649.97,43633,46.4,44.9,20.50,0,9173
13-Jul-21 03:00:00,2650.01,43675,44.8,43.3,20.50,0,9170
13-Jul-21 04:00:00,2649.95,43612,44.9,44.9,20.50,0,9166
13-Jul-21 05:00:00,2649.96,43622,45.8,44.5,20.50,0,9183
13-Jul-21 06:00:00,2649.97,43633,44.8,43.9,20.60,0,9212
13-Jul-21 07:00:00,2650.01,43675,46.7,44.8,20.50,0,9197
13-Jul-21 08:00:00,2649.93,43591,45.1,44.2,20.40,0,9182
13-Jul-21 09:00:00,2649.91,43570,46.1,44.0,20.50,0,9175
13-Jul-21 10:00:00,2649.91,43570,43.4,44.0,20.50,0,9164
13-Jul-21 11:00:00,2649.91,43570,40.7,44.0,20.50,0,9169
13-Jul-21 12:00:00,2649.96,43622,42.6,43.3,20.30,0,9111
13-Jul-21 13:00:00,2649.96,43622,39.9,43.3,10.30,0,4602
13-Jul-21 14:00:00,2649.98,43638,38.6,43.1,10.30,0,4621
13-Jul-21 15:00:00,2650.00,43664,38.2,42.7,10.30,0,4608
13-Jul-21 16:00:00,2650.02,43684,37.3,42.5,0.00,0,0
13-Jul-21 17:00:00,2650.04,43705,36.4,42.2,0.00,0,0
13-Jul-21 18:00:00,2650.06,43726,35.6,41.9,0.00,0,0
13-Jul-21 19:00:00,2650.08,43746,34.7,41.6,0.00,0,0
13-Jul-21 20:00:00,2650.10,43767,33.8,41.3,0.00,0,0
13-Jul-21 21:00:00,2649.92,43580,42.7,43.9,0.00,0,0
13-Jul-21 22:00:00,2649.90,43559,46.3,44.2,0.00,0,0
13-Jul-21 23:00:00,2649.90,43559,42.2,44.4,20.60,0,9242
14-Jul-21 00:00:00,2649.87,43528,45.6,43.6,29.40,0,13158
14-Jul-21 01:00:00,2649.87,43528,44.5,44.5,29.30,0,13136
14-Jul-21 02:00:00,2649.90,43559,45.4,45.4,20.50,0,9165
14-Jul-21 03:00:00,2649.90,43559,44.3,45.3,20.50,0,9181
14-Jul-21 04:00:00,2649.88,43538,45.3,43.6,20.50,0,9182
14-Jul-21 05:00:00,2649.84,43496,44.0,45.3,20.50,0,9183
14-Jul-21 06:00:00,2649.87,43528,44.3,44.1,20.50,0,9172
14-Jul-21 07:00:00,2649.90,43559,45.2,44.7,20.40,0,9138
14-Jul-21 08:00:00,2649.81,43465,44.1,44.7,20.40,0,9135
14-Jul-21 09:00:00,2649.83,43486,45.3,44.0,20.40,0,9158
14-Jul-21 10:00:00,2649.82,43475,45.0,45.2,20.50,0,9166
14-Jul-21 11:00:00,2649.84,43496,41.3,42.0,20.50,0,9174
14-Jul-21 12:00:00,2649.82,43472,43.2,43.6,20.50,0,9174
14-Jul-21 13:00:00,2649.81,43465,42.9,43.4,10.20,0,4576
14-Jul-21 14:00:00,2649.80,43457,42.7,43.3,10.30,0,4597
14-Jul-21 15:00:00,2649.80,43450,42.4,43.1,10.20,0,4573
14-Jul-21 16:00:00,2649.79,43443,42.2,43.0,0.00,0,0
14-Jul-21 17:00:00,2649.78,43435,41.9,42.8,0.00,0,0
14-Jul-21 18:00:00,2649.78,43428,41.7,42.7,0.00,0,0
14-Jul-21 19:00:00,2649.77,43421,41.4,42.6,0.00,0,0
14-Jul-21 20:00:00,2649.76,43413,41.2,42.4,0.00,0,0
14-Jul-21 21:00:00,2649.79,43443,40.5,40.4,0.00,0,0
14-Jul-21 22:00:00,2649.80,43454,42.9,42.3,0.00,0,0
14-Jul-21 23:00:00,2649.77,43422,41.8,41.6,10.30,0,4630
15-Jul-21 00:00:00,2649.77,43422,42.0,41.2,29.40,0,13187
15-Jul-21 01:00:00,2649.80,43454,40.5,41.2,20.50,0,9177
15-Jul-21 02:00:00,2649.77,43422,40.5,40.3,20.50,0,9193
15-Jul-21 03:00:00,2649.76,43412,40.5,41.3,29.40,0,13185
15-Jul-21 04:00:00,2649.78,43433,40.3,41.0,15.80,0,7066
15-Jul-21 05:00:00,2649.75,43401,42.2,40.8,10.30,0,4625
15-Jul-21 06:00:00,2649.78,43433,41.1,41.1,20.60,0,9209
15-Jul-21 07:00:00,2649.78,43433,41.1,41.2,10.30,0,4613
15-Jul-21 08:00:00,2649.75,43401,41.1,41.0,10.30,0,4630
15-Jul-21 09:00:00,2649.76,43412,41.5,41.0,20.60,0,9213
15-Jul-21 10:00:00,2649.81,43465,41.2,41.4,20.50,0,9174
15-Jul-21 11:00:00,2649.78,43433,42.4,42.7,10.30,0,4598
15-Jul-21 12:00:00,2649.74,43390,40.8,42.1,10.30,0,4625
15-Jul-21 13:00:00,2649.75,43401,42.7,41.7,20.50,0,9189
15-Jul-21 14:00:00,2649.76,43412,42.1,42.2,20.50,0,9186
15-Jul-21 15:00:00,2649.80,43454,42.9,42.5,10.30,0,4596
15-Jul-21 16:00:00,2649.77,43422,43.5,41.6,0.00,0,0
15-Jul-21 17:00:00,2649.80,43451,44.1,42.0,0.00,0,0
15-Jul-21 18:00:00,2649.70,43348,41.1,42.6,0.00,0,0
15-Jul-21 19:00:00,2649.68,43327,42.2,40.8,0.00,0,0
15-Jul-21 20:00:00,2649.69,43338,42.6,42.0,0.00,0,0
15-Jul-21 21:00:00,2649.68,43327,42.8,42.2,0.00,0,0
15-Jul-21 22:00:00,2649.68,43327,41.8,42.2,0.00,0,0
15-Jul-21 23:00:00,2649.69,43338,41.6,41.8,10.40,0,4641
16-Jul-21 00:00:00,2649.74,43390,41.6,42.5,29.50,0,13211
16-Jul-21 01:00:00,2649.75,43401,43.2,41.7,20.60,0,9209
16-Jul-21 02:00:00,2649.66,43306,42.0,41.4,20.50,0,9168
16-Jul-21 03:00:00,2649.71,43359,43.0,42.0,20.50,0,9204
16-Jul-21 04:00:00,2649.64,43285,42.7,42.4,29.30,0,13115
16-Jul-21 05:00:00,2649.65,43296,43.3,42.3,10.30,0,4602
16-Jul-21 06:00:00,2649.73,43380,41.9,41.6,20.50,0,9186
16-Jul-21 07:00:00,2649.67,43317,41.3,41.9,20.50,0,9182
16-Jul-21 08:00:00,2649.63,43275,41.4,41.4,20.60,0,9209
16-Jul-21 09:00:00,2649.66,43306,42.3,41.2,20.50,0,9182
16-Jul-21 10:00:00,2649.70,43348,39.5,41.0,10.30,0,4614
16-Jul-21 11:00:00,2649.65,43296,40.9,41.2,10.30,0,4628
16-Jul-21 12:00:00,2649.64,43290,40.7,41.1,20.40,0,9161
16-Jul-21 13:00:00,2649.64,43284,40.6,41.0,20.40,0,9134
16-Jul-21 14:00:00,2649.63,43278,40.4,40.9,9.20,0,4128
16-Jul-21 15:00:00,2649.63,43272,40.2,40.8,0.00,0,0
16-Jul-21 16:00:00,2649.62,43266,40.0,40.7,10.30,0,4620
16-Jul-21 17:00:00,2649.62,43260,39.8,40.6,0.00,0,0
16-Jul-21 18:00:00,2649.61,43254,39.6,40.5,0.00,0,0
16-Jul-21 19:00:00,2649.60,43247,39.5,40.4,0.00,0,0
16-Jul-21 20:00:00,2649.60,43241,39.3,40.3,0.00,0,0
16-Jul-21 21:00:00,2649.59,43235,39.1,40.2,0.00,0,0
16-Jul-21 22:00:00,2649.59,43229,38.9,40.1,0.00,0,0
16-Jul-21 23:00:00,2649.63,43275,42.4,42.2,20.60,0,9249
17-Jul-21 00:00:00,2649.64,43285,42.0,41.5,29.50,0,13199
17-Jul-21 01:00:00,2649.63,43275,42.9,42.5,20.50,0,9187
17-Jul-21 02:00:00,2649.55,43191,42.3,41.9,20.50,0,9197
17-Jul-21 03:00:00,2649.60,43243,42.9,42.2,29.40,0,13167
17-Jul-21 04:00:00,2649.60,43243,43.1,42.6,29.40,0,13173
17-Jul-21 05:00:00,2649.57,43212,41.8,41.8,20.50,0,9168
17-Jul-21 06:00:00,2649.59,43233,42.4,41.8,10.30,0,4614
17-Jul-21 07:00:00,2649.61,43254,41.7,41.8,20.50,0,9198
17-Jul-21 08:00:00,2649.57,43212,40.2,42.1,20.70,0,9264
17-Jul-21 09:00:00,2649.60,43243,41.8,41.8,10.30,0,4605
17-Jul-21 10:00:00,2649.59,43233,42.5,42.0,20.50,0,9169
17-Jul-21 11:00:00,2649.57,43212,43.2,43.0,10.30,0,4605
17-Jul-21 12:00:00,2649.56,43201,41.8,41.9,20.60,0,9238
17-Jul-21 13:00:00,2649.57,43212,42.0,42.2,20.50,0,9172
17-Jul-21 14:00:00,2649.57,43209,42.0,42.2,4.20,0,1864
17-Jul-21 15:00:00,2649.56,43206,42.0,42.2,0.00,0,0
17-Jul-21 16:00:00,2649.56,43203,42.0,42.2,10.40,0,4680
17-Jul-21 17:00:00,2649.56,43200,42.0,42.3,0.00,0,0
17-Jul-21 18:00:00,2649.56,43197,41.9,42.3,0.00,0,0
17-Jul-21 19:00:00,2649.55,43194,41.9,42.3,0.00,0,0
17-Jul-21 20:00:00,2649.54,43180,44.1,42.1,0.00,0,0
17-Jul-21 21:00:00,2649.59,43233,40.1,40.8,0.00,0,0
17-Jul-21 22:00:00,2649.56,43201,42.9,41.4,0.00,0,0
17-Jul-21 23:00:00,2649.57,43212,43.5,42.8,20.40,0,9153
18-Jul-21 00:00:00,2649.52,43159,41.2,41.7,29.40,0,13175
18-Jul-21 01:00:00,2649.48,43117,41.8,41.6,20.50,0,9184
18-Jul-21 02:00:00,2649.51,43149,41.1,40.7,20.50,0,9190
18-Jul-21 03:00:00,2649.52,43159,40.5,41.3,20.50,0,9189
18-Jul-21 04:00:00,2649.50,43138,40.2,41.6,29.40,0,13163
18-Jul-21 05:00:00,2649.49,43128,42.7,41.4,29.30,0,13135
18-Jul-21 06:00:00,2649.47,43107,41.9,42.4,20.50,0,9167
18-Jul-21 07:00:00,2649.47,43107,40.9,42.8,10.30,0,4625
18-Jul-21 08:00:00,2649.47,43107,39.8,41.5,10.30,0,4637
18-Jul-21 09:00:00,2649.50,43138,42.0,42.1,20.60,0,9209
18-Jul-21 10:00:00,2649.48,43113,41.2,42.4,20.50,0,9199
18-Jul-21 11:00:00,2649.54,43180,41.8,42.4,10.30,0,4602
18-Jul-21 12:00:00,2649.52,43154,41.0,42.5,10.30,0,4596
18-Jul-21 13:00:00,2649.52,43161,40.9,42.6,10.30,0,4604
18-Jul-21 14:00:00,2649.53,43168,40.8,42.6,20.60,0,9219
18-Jul-21 15:00:00,2649.54,43175,40.7,42.7,10.90,0,4866
18-Jul-21 16:00:00,2649.54,43183,40.6,42.8,0.00,0,0
18-Jul-21 17:00:00,2649.55,43190,40.5,42.9,0.00,0,0
18-Jul-21 18:00:00,2649.56,43197,40.4,43.0,0.00,0,0
18-Jul-21 19:00:00,2649.56,43204,40.3,43.0,0.00,0,0
18-Jul-21 20:00:00,2649.45,43086,41.5,41.9,0.00,0,0
18-Jul-21 21:00:00,2649.49,43128,41.3,42.2,0.00,0,0
18-Jul-21 22:00:00,2649.49,43128,41.2,41.0,0.00,0,0
18-Jul-21 23:00:00,2649.47,43107,41.3,40.8,20.50,0,9206
19-Jul-21 00:00:00,2649.45,43086,41.4,41.5,29.40,0,13168
19-Jul-21 01:00:00,2649.42,43054,42.6,41.8,20.50,0,9199
19-Jul-21 02:00:00,2649.36,42991,40.4,41.2,20.50,0,9205
19-Jul-21 03:00:00,2649.38,43012,41.4,41.4,20.50,0,9199
19-Jul-21 04:00:00,2649.41,43044,41.0,41.5,29.50,0,13215
19-Jul-21 05:00:00,2649.41,43044,41.8,41.8,29.40,0,13151
19-Jul-21 06:00:00,2649.38,43012,41.8,42.7,20.40,0,9141
19-Jul-21 07:00:00,2649.40,43033,42.0,41.8,20.40,0,9156
19-Jul-21 08:00:00,2649.39,43023,42.3,41.4,10.20,0,4556
19-Jul-21 09:00:00,2649.38,43012,43.3,41.5,20.50,0,9172
19-Jul-21 10:00:00,2649.40,43033,41.0,41.3,20.50,0,9180
19-Jul-21 11:00:00,2649.42,43054,41.5,41.0,20.40,0,9162
19-Jul-21 12:00:00,2649.42,43054,42.8,41.9,29.40,0,13166
19-Jul-21 13:00:00,2649.38,43012,41.4,41.9,20.40,0,9156
19-Jul-21 14:00:00,2649.35,42981,41.5,42.2,10.30,0,4609
19-Jul-21 15:00:00,2649.35,42983,41.9,42.5,10.30,0,4602
19-Jul-21 16:00:00,2649.34,42968,42.0,42.7,0.00,0,0
19-Jul-21 17:00:00,2649.32,42954,42.1,43.0,0.00,0,0
19-Jul-21 18:00:00,2649.31,42939,42.2,43.3,0.00,0,0
19-Jul-21 19:00:00,2649.30,42925,42.3,43.6,0.00,0,0
19-Jul-21 20:00:00,2649.28,42910,42.4,43.8,0.00,0,0
19-Jul-21 21:00:00,2649.28,42907,42.4,42.3,0.00,0,0
19-Jul-21 22:00:00,2649.30,42928,42.0,41.9,0.00,0,0
19-Jul-21 23:00:00,2649.30,42928,39.4,42.1,0.00,0,0
20-Jul-21 00:00:00,2649.34,42970,41.9,41.9,29.50,0,13224
